Anoka County, MN

6:02 PM CDT on April 26, 2017 (GMT -0500)
Anoka County / Blaine Airport

Weather History for KANE - January, 2014

Change the Weather History Date:

Thursday, January 23, 2014

  Actual Average Record
Temperature  
Mean Temperature 0 °F -  
Max Temperature 15 °F 20 °F 41 °F (2015)
Min Temperature -16 °F 6 °F -16 °F (2014)
Degree Days  
Heating Degree Days 66    
Moisture  
Dew Point -14 °F    
Average Humidity 70    
Maximum Humidity 85    
Minimum Humidity 48    
Precipitation  
Precipitation 0.00 in - - ()
Sea Level Pressure  
Sea Level Pressure 30.51 in    
Wind  
Wind Speed 10 mph (West)    
Max Wind Speed 15 mph    
Max Gust Speed 20 mph    
Visibility 10 miles    
Events      
Averages and records for this station are not official NWS values.
T = Trace of Precipitation, MM = Missing Value Source: NWS Daily Summary

Daily Weather History Graph

Daily Weather History Graph

Search for Another Location

Airport or City:

Trip Planner

Search our weather history database for the weather conditions in past years. The results will help you decide how hot, cold, wet, or windy it might be!

Date:

Astronomy

Jan. 23, 2014 Rise Set
Actual Time 7:42 AM CST 5:07 PM CST
Civil Twilight 7:10 AM CST 5:39 PM CST
Nautical Twilight 6:34 AM CST 6:15 PM CST
Astronomical Twilight 5:59 AM CST 6:50 PM CST
Moon No Moon Rise 10:56 AM CST (1/23)
Length of Visible Light 10h 29m
Length of Day
9h 25m
Waning Gibbous, 55% of the Moon is Illuminated
Jan 23
Waning Gibbous
Jan 23
Last Quarter
Jan 30
New
Feb 6
First Quarter
Feb 14
Full

Hourly Weather History & Observations

Time (CST) Temp. Windchill Dew Point Humidity Pressure Visibility Wind Dir Wind Speed Gust Speed Precip Events Conditions
12:14 AM -7.6 °F -24.6 °F -16.6 °F 65% 30.47 in 10.0 mi WNW 9.2 mph - N/A   Clear
12:34 AM -9.4 °F -26.8 °F -16.6 °F 71% 30.48 in 10.0 mi WNW 9.2 mph - N/A   Clear
12:54 AM -9.4 °F -27.9 °F -16.6 °F 71% 30.48 in 10.0 mi WNW 10.4 mph - N/A   Clear
1:14 AM -9.4 °F -27.9 °F -16.6 °F 71% 30.49 in 10.0 mi WNW 10.4 mph - N/A   Clear
1:34 AM -9.4 °F -29.8 °F -18.4 °F 65% 30.50 in 10.0 mi WNW 12.7 mph - N/A   Clear
1:54 AM -11.2 °F -29.0 °F -18.4 °F 70% 30.51 in 10.0 mi NW 9.2 mph - N/A   Clear
2:14 AM -11.2 °F -27.8 °F -18.4 °F 70% 30.52 in 10.0 mi WNW 8.1 mph - N/A   Clear
2:34 AM -11.2 °F -30.1 °F -18.4 °F 70% 30.52 in 10.0 mi WNW 10.4 mph - N/A   Clear
2:54 AM -11.2 °F -27.8 °F -18.4 °F 70% 30.54 in 10.0 mi West 8.1 mph - N/A   Clear
3:14 AM -13.0 °F -31.3 °F -20.2 °F 70% 30.55 in 10.0 mi West 9.2 mph - N/A   Clear
3:34 AM -13.0 °F -32.4 °F -20.2 °F 70% 30.56 in 10.0 mi WNW 10.4 mph - N/A   Clear
3:54 AM -13.0 °F -31.3 °F -20.2 °F 70% 30.57 in 10.0 mi NW 9.2 mph - N/A   Clear
4:14 AM -14.8 °F -34.6 °F -20.2 °F 77% 30.58 in 10.0 mi WNW 10.4 mph - N/A   Clear
4:34 AM -14.8 °F -33.5 °F -20.2 °F 77% 30.59 in 10.0 mi WNW 9.2 mph - N/A   Clear
4:54 AM -14.8 °F -35.6 °F -20.2 °F 77% 30.59 in 10.0 mi WNW 11.5 mph - N/A   Clear
5:14 AM -14.8 °F -35.6 °F -20.2 °F 77% 30.60 in 10.0 mi WNW 11.5 mph - N/A   Clear
5:34 AM -14.8 °F -35.6 °F -20.2 °F 77% 30.60 in 10.0 mi WNW 11.5 mph 16.1 mph N/A   Clear
5:54 AM -14.8 °F -34.6 °F -20.2 °F 77% 30.61 in 10.0 mi WNW 10.4 mph 16.1 mph N/A   Clear
6:14 AM -16.6 °F -35.7 °F -22.0 °F 76% 30.63 in 10.0 mi WNW 9.2 mph - N/A   Clear
6:34 AM -16.6 °F -34.4 °F -22.0 °F 76% 30.63 in 10.0 mi NW 8.1 mph - N/A   Clear
6:54 AM -16.6 °F -36.8 °F -22.0 °F 76% 30.64 in 10.0 mi WNW 10.4 mph - N/A   Clear
7:45 AM 1.4 °F -13.5 °F -11.2 °F 56% 30.65 in 10.0 mi WNW 9.2 mph - N/A   Clear
8:45 AM 1.4 °F -13.5 °F -11.2 °F 56% 30.67 in 10.0 mi WNW 9.2 mph - N/A   Clear
9:45 AM 5.0 °F -9.1 °F -7.6 °F 56% 30.68 in 10.0 mi WNW 9.2 mph - N/A   Clear
10:45 AM 12.2 °F -0.2 °F -4.0 °F 48% 30.70 in 10.0 mi WNW 9.2 mph - N/A   Clear
11:45 AM 15.8 °F 4.2 °F -0.4 °F 49% 30.67 in 10.0 mi West 9.2 mph - N/A   Clear
12:45 PM -7.6 °F -24.6 °F -18.4 °F 59% 30.66 in 10.0 mi WSW 9.2 mph - N/A   Clear
1:45 PM -7.6 °F -24.6 °F -16.6 °F 65% 30.64 in 10.0 mi WSW 9.2 mph - N/A   Clear
2:45 PM -5.8 °F -21.2 °F -14.8 °F 65% 30.62 in 10.0 mi WSW 8.1 mph - N/A   Clear
3:50 PM -5.8 °F -21.2 °F -14.8 °F 65% 30.60 in 10.0 mi WSW 8.1 mph - N/A   Clear
4:50 PM -4.0 °F -16.3 °F -14.8 °F 60% 30.58 in 10.0 mi WSW 5.8 mph - N/A   Partly Cloudy
5:45 PM -5.8 °F -18.4 °F -14.8 °F 65% 30.54 in 10.0 mi SSW 5.8 mph - N/A   Scattered Clouds
6:55 PM -7.6 °F -22.1 °F -14.8 °F 71% 30.49 in 10.0 mi SSW 6.9 mph - N/A   Scattered Clouds
7:45 PM -5.8 °F -19.9 °F -11.2 °F 77% 30.44 in 10.0 mi SSW 6.9 mph - N/A   Scattered Clouds
8:45 PM -4.0 °F -20.2 °F -9.4 °F 78% 30.38 in 10.0 mi South 9.2 mph - N/A   Scattered Clouds
9:14 PM -4.0 °F -22.1 °F -7.6 °F 85% 30.35 in 10.0 mi South 11.5 mph - N/A   Clear
9:34 PM -2.2 °F -19.9 °F -7.6 °F 78% 30.33 in 10.0 mi SSW 11.5 mph - N/A   Clear
9:54 PM -2.2 °F -19.9 °F -7.6 °F 78% 30.31 in 10.0 mi South 11.5 mph - N/A   Clear
10:14 PM -2.2 °F -18.9 °F -7.6 °F 78% 30.28 in 10.0 mi SSW 10.4 mph 16.1 mph N/A   Clear
10:34 PM -0.4 °F -19.2 °F -5.8 °F 78% 30.25 in 10.0 mi South 13.8 mph 18.4 mph N/A   Clear
10:54 PM 1.4 °F -16.9 °F -5.8 °F 72% 30.22 in 10.0 mi South 13.8 mph - N/A   Clear
11:14 PM 1.4 °F -17.6 °F -5.8 °F 72% 30.20 in 10.0 mi South 15.0 mph 19.6 mph N/A   Clear
11:34 PM 3.2 °F -14.6 °F -5.8 °F 66% 30.18 in 10.0 mi South 13.8 mph 18.4 mph N/A   Clear
11:54 PM 3.2 °F -13.9 °F -5.8 °F 66% 30.15 in 10.0 mi South 12.7 mph 17.3 mph N/A   Clear